Location: Florence
(33.9745°N, 118.2481°W)
Time: 19:24:32
(UTC+00:00)

Cosmos 1151 Rocket - Pass Details

Date: 23 March 2023
Orbit: 591 x 612 km, 82.5° (Epoch: 06 June)

Event Time Altitude Azimuth Distance (km) Brightness Sun altitude
Rises 12:51:18 0° 186° (S) 2,859 6.3 -13.5°
Reaches altitude 10° 12:53:31 10° 186° (S) 1,958 5.5 -13.0°
Maximum altitude 12:57:51 88° 271° (W) 614 3.0 -12.2°
Drops below altitude 10° 13:02:12 10° 6° (N) 1,961 5.8 -11.3°
Sets 13:04:25 0° 7° (N) 2,865 6.7 -10.8°
